Regional Weather Roundup
Issued by NWS

Home | Current Version | Previous Version | Text Only | Print | Product List | Glossary On
Versions: 1 2 3 4 5 6 7 8 9 10 11 12 13 14 15 16 17 18 19 20 21 22 23 24 25 26 27 28 29 30 31 32 33 34 35 36 37 38 39 40 41 42 43 44 45 46 47 48 49 50
000
ASUS43 KDMX 010210
RWRIA

WEATHER ROUNDUP FOR IOWA
NATIONAL WEATHER SERVICE DES MOINES IA
900 PM CDT WED AUG 31 2016

NOTE: "FAIR" INDICATES FEW OR NO CLOUDS BELOW 12,000 FEET WITH NO
SIGNIFICANT WEATHER AND/OR OBSTRUCTIONS TO VISIBILITY.

* - THESE STATIONS ARE NOT NWS STATIONS...THUS NOT UNDER NWS
QUALITY CONTROL.  THEY ALSO DO NOT REPORT WEATHER SUCH
AS PRECIPITATION OR FOG.

IAZ001>003-012>014-020>022-031>034-043>046-010300-
   NORTHWEST IOWA

CITY           SKY/WX    TMP DP  RH WIND       PRES   REMARKS
CARROLL *      CLEAR     63  59  88 CALM      30.17R
CHEROKEE *     PTCLDY    66  62  87 CALM      30.18R
DENISON *      CLEAR     64  61  88 NE3       30.16R
LE MARS *      CLEAR     68  63  83 CALM      30.19R
ORANGE CITY *  CLEAR     72  61  68 CALM      30.19R
SHELDON *      CLEAR     64  63  94 NE6       30.18R
SIOUX CITY     CLEAR     67  63  87 CALM      30.17R
SPENCER        CLEAR     65  59  81 NE6       30.19R
STORM LAKE *   CLEAR     66  61  82 NE6       30.19R
$$

IAZ055>058-069>071-079>083-090>094-010300-
   SOUTHWEST IOWA

CITY           SKY/WX    TMP DP  RH WIND       PRES   REMARKS
ATLANTIC *     CLEAR     66  63  88 CALM      30.16R
AUDUBON *      CLEAR     63  61  94 CALM      30.18R
CLARINDA *       N/A     66  64  94 MISG        N/A
COUNCIL BLFS * CLEAR     68  61  77 N5        30.17R
CRESTON *      PTCLDY    68  61  77 NE7       30.17R
HARLAN  *      CLEAR     64  63  94 N5        30.20R
LAMONI         MOCLDY    67  61  81 NE7       30.14R
RED OAK *      CLEAR     66  63  88 N6        30.16R
SHENANDOAH *   CLEAR     68  64  88 N3        30.15R
$$

IAZ047>049-059>061-072>074-084-010300-
   CENTRAL IOWA

CITY           SKY/WX    TMP DP  RH WIND       PRES   REMARKS
AMES           CLEAR     64  61  90 CALM      30.15R
ANKENY *         N/A    N/A N/A N/A MISG        N/A
BOONE *          N/A     66  57  72 NE5       30.16R
CHARITON *       N/A     66  61  82 N7        30.14R
DES MOINES     PTCLDY    72  57  59 NE6       30.14R
GRINNELL*      CLEAR     64  58  81 N3        30.15R
KNOXVILLE *    PTCLDY    70  57  64 N7        30.13R
MARSHALLTOWN   CLEAR     64  60  87 N6        30.14R
NEWTON *       CLEAR     66  59  77 N5        30.14R
PELLA *        CLEAR     64  59  85 CALM      30.15R
PERRY *          N/A     64  63  97 CALM      30.16R
$$

IAZ004>006-015-016-023>025-035-036-010300-
   NORTH CENTRAL IOWA

CITY           SKY/WX    TMP DP  RH WIND       PRES   REMARKS
ALGONA *       CLEAR     66  61  82 N5        30.19R
ESTHERVILLE    CLEAR     63  60  90 N6        30.19R
FORT DODGE *   CLEAR     66  57  72 N5        30.18R
MASON CITY     CLEAR     62  58  86 N6        30.19R
FOREST CITY *    N/A     61  59  94 CALM      30.18R
WEBSTER CITY * CLEAR     63  61  94 CALM      30.15R
IOWA FALLS *     N/A     64  59  83 N3        30.17R
$$

IAZ007>011-017>019-026>030-037>042-050>054-066-010300-
   NORTHEAST IOWA

CITY           SKY/WX    TMP DP  RH WIND       PRES   REMARKS
CEDAR RAPIDS   CLEAR     67  57  70 NE6       30.13R
CHARLES CITY * CLEAR     63  57  82 N6        30.17R
CLINTON *      CLEAR     62  59  90 N3        30.12R
DECORAH *      CLEAR     64  57  77 N3        30.16R
DUBUQUE        CLEAR     64  58  80 CALM      30.14R
MONTICELLO *   CLEAR     64  61  88 CALM      30.13R
OELWEIN *      CLEAR     64  57  77 N7        30.16R
WATERLOO       CLEAR     62  55  77 CALM      30.14R
$$

IAZ064-065-067-068-078-010300-
   EAST CENTRAL IOWA

CITY           SKY/WX    TMP DP  RH WIND       PRES   REMARKS
DAVENPORT      CLEAR     61  58  90 N3        30.12R
IOWA CITY      CLEAR     70  57  63 N3        30.13R
MT. PLEASANT * CLEAR     66  61  82 N6        30.12R
MUSCATINE *    CLEAR     66  59  77 N5        30.11S
QUAD CITIES    CLEAR     70  57  63 N5        30.10R
$$

IAZ062-063-075>077-085>089-095>099-010300-
   SOUTHEAST IOWA

CITY           SKY/WX    TMP DP  RH WIND       PRES   REMARKS
BURLINGTON     PTCLDY    67  61  81 N7        30.10R
FAIRFIELD *    CLOUDY    64  59  82 N5        30.12R
FORT MADISON * PTCLDY    63  61  94 CALM      30.11R
KEOKUK *       CLEAR     68  61  77 N5        30.10R
OSKALOOSA *      N/A     62  58  87 N7        30.13R
OTTUMWA        CLEAR     65  58  78 N5        30.13R
WASHINGTON *   CLEAR     64  59  82 NE5       30.13R
$$

ABBREVIATIONS USED IN REMARKS
   TC - TEMPERATURES IN CELSIUS
  WCI - WIND CHILL INDEX
   HX - HEAT INDEX
  VSB - VISIBILITY
$$





USA.gov is the U.S. government's official web portal to all federal, state and local government web resources and services.